This demonstration page uses our WeatherBlox Daily Observations layout. Learn more.

Left ArrowRight Arrow

Hourly Observations for December 25, 2015

Temp ( °F °C ) Dew Point ( °F °C ) Humidity (%) Winds ( mph kmh ) Pressure ( in mb ) Visibility ( mi km ) Precip ( " mm )
12:53 am 00:53 Mostly Cloudy with Light Rain 65 18.3 63 17.2 93 93 SSW 5 7 30.18 1022 10 16 0.03 0.76
1:53 am 01:53 Cloudy with Rain 66 18.9 63 17.2 90 90 S 15 24 30.15 1021 7 11 0.14 3.56
2:53 am 02:53 Mostly Cloudy with Thunderstorms 66 18.9 63 17.2 90 90 SSW 6 9 30.16 1022 10 16 0.07 1.78
3:12 am 03:12 Mostly Cloudy with Nearby Thunderstorms 66 19 63 17 88 88 SSW 7 11 30.18 1022 10 16 0.00 0.00
3:33 am 03:33 Cloudy with Light Rain 66 18.9 63 17.2 90 90 SW 7 11 30.18 1022 10 16 0.04 1.02
3:53 am 03:53 Cloudy with Rain 66 18.9 63 17.2 90 90 VRB 7 11 30.17 1022 6 10 0.09 2.29
4:05 am 04:05 Cloudy with Thunderstorms 66 18.9 63 17.2 90 90 VRB 5 7 30.18 1022 7 11 0.03 0.76
4:19 am 04:19 Cloudy with Rain 66 18.9 63 17.2 90 90 SSW 5 7 30.18 1022 7 11 0.06 1.52
4:33 am 04:33 Cloudy with Rain 66 18.9 63 17.2 90 90 VRB 5 7 30.18 1022 8 13 0.09 2.29
4:46 am 04:46 Cloudy with Rain 66 19 63 17 88 88 W 5 7 30.18 1022 6 10 0.00 0.00
4:53 am 04:53 Cloudy with Rain 66 18.9 63 17.2 90 90 Calm 30.15 1021 5 8 0.15 3.81
5:07 am 05:07 Cloudy with Light Rain 66 18.9 63 17.2 90 90 VRB 3 6 30.15 1021 9 14 0.02 0.51
5:18 am 05:18 Cloudy with Nearby Thunderstorms 66 19 63 17 88 88 VRB 7 11 30.15 1021 10 16 0.00 0.00
5:53 am 05:53 Cloudy with Nearby Thunderstorms 66 18.9 63 17.2 90 90 VRB 3 6 30.15 1021 10 16 0.06 1.52
6:22 am 06:22 Mostly Cloudy 66 18.9 62 16.7 87 87 SW 8 13 30.18 1022 10 16 0.00 0.03
6:53 am 06:53 Mostly Clear 66 18.9 62 16.7 87 87 SSW 9 15 30.17 1022 10 16 0.00 0.03
7:53 am 07:53 Mostly Cloudy 67 19.4 63 17.2 87 87 S 9 15 30.16 1021 10 16 0.00 0.00
8:01 am 08:01 Mostly Cloudy 68 20 64 17.8 87 87 S 9 15 30.18 1022 10 16 0.00 0.00
8:53 am 08:53 Cloudy 69 20.6 65 18.3 87 87 S 12 19 30.19 1023 10 16 0.00 0.00
9:53 am 09:53 Cloudy 70 21.1 66 18.9 87 87 S 12 19 30.21 1023 10 16 0.00 0.00
10:50 am 10:50 Cloudy 72 22 66 19 83 83 S 13 20 30.18 1022 10 16 0.00 0.00
10:53 am 10:53 Cloudy 71 21.7 66 18.9 84 84 S 12 19 30.19 1022 10 16 0.00 0.00
11:32 am 11:32 Cloudy 72 22 66 19 83 83 SSW 10 17 30.18 1022 10 16 0.00 0.00
11:53 am 11:53 Cloudy 72 22.2 66 18.9 82 82 S 10 17 30.20 1023 10 16 0.00 0.00
12:39 pm 12:39 Cloudy 73 22.8 67 19.4 81 81 S 10 17 30.15 1021 10 16 0.00 0.00
12:53 pm 12:53 Cloudy 74 23.3 67 19.4 79 79 SSW 8 13 30.17 1022 10 16 0.00 0.00
1:04 pm 13:04 Cloudy 73 23 66 19 78 78 SSW 8 13 30.15 1021 10 16 0.00 0.00
1:39 pm 13:39 Cloudy 74 23.3 66 18.9 76 76 S 10 17 30.15 1021 10 16 0.00 0.00
1:53 pm 13:53 Cloudy 74 23.3 67 19.4 79 79 SSW 8 13 30.15 1021 10 16 0.00 0.00
2:53 pm 14:53 Cloudy 75 23.9 66 18.9 74 74 S 10 17 30.13 1020 10 16 0.00 0.00
3:53 pm 15:53 Cloudy 75 23.9 66 18.9 74 74 SW 5 7 30.14 1021 10 16 0.00 0.00
4:04 pm 16:04 Cloudy 75 24 66 19 74 74 SW 6 9 30.15 1021 10 16 0.00 0.00
4:53 pm 16:53 Cloudy 75 23.9 66 18.9 74 74 Calm 30.16 1021 10 16 0.00 0.00
5:53 pm 17:53 Cloudy 69 20.6 63 17.2 81 81 N 13 20 30.18 1022 10 16 0.00 0.00
6:05 pm 18:05 Cloudy with Light Rain 68 20 62 16.7 81 81 WNW 12 19 30.18 1022 4 6 0.07 1.78
6:15 pm 18:15 Cloudy with Heavy Rain 65 18.3 62 16.7 90 90 N 7 11 30.18 1022 3 4 0.14 3.56
6:18 pm 18:18 Cloudy with Heavy Rain 65 18.3 62 16.7 90 90 N 9 15 30.21 1023 3 5 0.16 4.06
6:53 pm 18:53 Cloudy with Light Rain 65 18.3 62 16.7 90 90 NE 6 9 30.23 1024 10 16 0.18 4.57
7:53 pm 19:53 Cloudy with Light Rain 65 18.3 62 16.7 90 90 NNE 3 6 30.24 1024 10 16 0.05 1.27
8:53 pm 20:53 Cloudy 65 18.3 62 16.7 90 90 ENE 3 6 30.25 1024 10 16 0.01 0.25
9:53 pm 21:53 Cloudy with Light Rain 65 18.3 62 16.7 90 90 Calm 30.26 1025 9 14 0.00 0.03
10:53 pm 22:53 Cloudy with Rain 64 17.8 62 16.7 93 93 W 10 17 30.31 1027 4 6 0.05 1.27
10:58 pm 22:58 Cloudy with Heavy Rain 64 18 63 17 94 94 Calm 30.30 1026 2 3 0.00 0.00
11:13 pm 23:13 Cloudy with Rain 64 17.8 62 16.7 93 93 Calm 30.30 1026 3 5 0.20 5.08
11:53 pm 23:53 Cloudy with Light Rain 63 17.2 62 16.7 97 97 NNE 3 6 30.30 1026 8 13 0.25 6.35

Powered by AerisWeather